Location: Berlin
(52.5171°N, 13.4421°E)
Time: 14:29:07
(UTC+02:00)

ISS - Visible Passes

Search period start: 13 May 2025 00:00
Search period end: 23 May 2025 00:00
Orbit: 416 x 420 km, 51.6° (Epoch: 13 May)

Date Brightness Start Highest point End Pass type
(mag) Time Alt. Az. Time Alt. Az. Time Alt. Az.
13 May -3.6 00:39:12 10° W 00:42:03 56° WSW 00:42:03 56° WSW visible
13 May -3.8 22:14:38 10° WSW 22:17:58 61° SSE 22:21:17 10° E visible
13 May -3.9 23:51:18 10° W 23:54:40 75° S 23:55:47 38° ESE visible
14 May -1.4 01:28:07 10° W 01:28:42 14° W 01:28:42 14° W visible
14 May -3.9 23:03:22 10° W 23:06:44 78° S 23:09:26 15° E visible
15 May -2.8 00:40:08 10° W 00:42:22 33° WSW 00:42:22 33° WSW visible
15 May -3.8 22:15:26 10° W 22:18:48 77° S 22:22:09 10° E visible
15 May -3.8 23:52:11 10° W 23:55:30 57° SSW 23:55:59 50° SSE visible
16 May -3.8 23:04:13 10° W 23:07:33 68° S 23:09:36 21° ESE visible
17 May -1.8 00:41:08 10° W 00:42:30 19° WSW 00:42:30 19° WSW visible
17 May -3.8 22:16:14 10° W 22:19:36 76° S 22:22:57 10° E visible
17 May -3.1 23:53:03 10° W 23:56:06 35° SSW 23:56:06 35° SSW visible
18 May -3.4 23:05:01 10° W 23:08:15 46° SSW 23:09:41 27° SE visible
19 May -1.1 00:42:35 10° WSW 00:42:36 10° WSW 00:42:36 10° WSW visible
19 May -3.6 22:16:58 10° W 22:20:18 58° SSW 22:23:17 12° ESE visible
19 May -2.0 23:54:06 10° W 23:56:11 19° SW 23:56:11 19° SW visible
20 May -2.5 23:05:52 10° W 23:08:45 27° SSW 23:09:47 23° S visible
21 May -2.9 22:17:42 10° W 22:20:50 36° SSW 22:23:24 14° SE visible
22 May -1.7 23:07:07 10° WSW 23:09:04 15° SW 23:09:55 13° SSW visible
